Weather History for Baker, MT

Change the Weather History Date:

Friday, September 30, 2011

  Actual Average Record
Temperature  
Mean Temperature 62 °F -  
Max Temperature 82 °F 78 °F 82 °F (2005)
Min Temperature 43 °F 38 °F 21 °F (2003)
Degree Days  
Heating Degree Days 3    
Growing Degree Days 12 (Base 50)    
Moisture  
Dew Point 31 °F    
Average Humidity 36    
Maximum Humidity 58    
Minimum Humidity 18    
Precipitation  
Precipitation 0.00 in - - ()
Sea Level Pressure  
Sea Level Pressure 30.04 in    
Wind  
Wind Speed 13 mph (SSE)    
Max Wind Speed 16 mph    
Max Gust Speed 21 mph    
Visibility 10 miles    
Events      
Averages and records for this station are not official NWS values.
T = Trace of Precipitation, MM = Missing Value Source: NWS Daily Summary

Daily Weather History Graph

Daily Weather History Graph

Search for Another Location

Airport:

Trip Planner

Search our weather history database for the weather conditions in past years. The results will help you decide how hot, cold, wet, or windy it might be!

Date:

Astronomy

Sep. 30, 2011 Rise Set
Actual Time 6:54 AM MDT 6:39 PM MDT
Civil Twilight 6:24 AM MDT 7:09 PM MDT
Nautical Twilight 5:49 AM MDT 7:44 PM MDT
Astronomical Twilight 5:13 AM MDT 8:19 PM MDT
Moon 11:13 AM MDT (9/30) 8:24 PM MDT (9/30)
Length of Visible Light 12h 45m
Length of Day
11h 45m
Waxing Crescent, 15% of the Moon is Illuminated
Sep 30
Waxing Crescent
Oct 3
First Quarter
Oct 11
Full
Oct 19
Last Quarter
Oct 26
New

Hourly Weather History & Observations

Time (MDT) Temp. Windchill Dew Point Humidity Pressure Visibility Wind Dir Wind Speed Gust Speed Precip Events Conditions
12:51 AM 44.1 °F 37.7 °F 28.9 °F 55% 30.26 in 10.0 mi SE 12.7 mph - N/A   Clear
2:51 AM 45.0 °F 37.9 °F 28.9 °F 53% 30.21 in 10.0 mi SE 16.1 mph - N/A   Clear
3:51 AM 44.1 °F 37.4 °F 28.9 °F 55% 30.18 in 10.0 mi SE 13.8 mph - N/A   Clear
4:51 AM 43.0 °F 36.8 °F 28.9 °F 58% 30.17 in 10.0 mi SE 11.5 mph - N/A   Clear
5:51 AM 43.0 °F 36.4 °F 28.9 °F 58% 30.15 in 10.0 mi SE 12.7 mph - N/A   Clear
7:51 AM 45.0 °F 38.5 °F 28.9 °F 53% 30.14 in 10.0 mi SE 13.8 mph - N/A   Clear
8:51 AM 51.1 °F - 28.9 °F 43% 30.13 in 10.0 mi SSE 16.1 mph - N/A   Clear
9:51 AM 57.0 °F - 28.9 °F 34% 30.11 in 10.0 mi SE 16.1 mph - N/A   Clear
10:51 AM 64.0 °F - 28.9 °F 27% 30.09 in 10.0 mi SSE 13.8 mph - N/A   Clear
11:51 AM 69.1 °F - 30.0 °F 23% 30.06 in 10.0 mi SSE 13.8 mph - N/A   Clear
12:51 PM 73.9 °F - 30.9 °F 21% 30.01 in 10.0 mi SSE 12.7 mph 20.7 mph N/A   Clear
1:51 PM 78.1 °F - 32.0 °F 19% 29.99 in 10.0 mi South 9.2 mph - N/A   Clear
2:51 PM 80.1 °F - 33.1 °F 18% 29.96 in 10.0 mi South 10.4 mph - N/A   Clear
3:51 PM 81.0 °F - 33.1 °F 18% 29.94 in 10.0 mi SSE 9.2 mph - N/A   Clear
4:51 PM 81.0 °F - 34.0 °F 18% 29.93 in 10.0 mi South 13.8 mph - N/A   Clear
5:51 PM 77.0 °F - 34.0 °F 21% 29.93 in 10.0 mi SSE 11.5 mph - N/A   Clear
6:51 PM 66.0 °F - 34.0 °F 30% 29.95 in 10.0 mi SSE 10.4 mph - N/A   Clear
7:51 PM 64.0 °F - 33.1 °F 31% 29.95 in 10.0 mi SE 12.7 mph - N/A   Clear
8:51 PM 63.0 °F - 33.1 °F 33% 29.95 in 10.0 mi SSE 15.0 mph - N/A   Clear
9:51 PM 63.0 °F - 33.1 °F 33% 29.93 in 10.0 mi SE 13.8 mph - N/A   Clear
10:51 PM 59.0 °F - 34.0 °F 39% 29.92 in 10.0 mi SE 10.4 mph - N/A   Clear
11:51 PM 55.0 °F - 33.1 °F 43% 29.92 in 10.0 mi ESE 8.1 mph - N/A   Clear